Tracking 21470 objects as of 25-Sep-2020
HD Live streaming from Space Station
objects crossing your sky now

COSMOS 1382 DEB

Track COSMOS 1382 DEB now!


NORAD ID: 27903
Int'l Code: 1982-064E
Perigee: 3,809.2 km
Apogee: 37,369.2 km
Inclination: 68.4 °
Period: 734.2 minutes
Semi major axis: 26960 km
RCS: 0.3202 m2 (medium)
Launch date: June 25, 1982
Source: Commonwealth of Independent States (former USSR) (CIS)
Launch site: PLESETSK MISSILE AND SPACE COMPLEX (PKMTR)

Note: This is SATELLITE DEBRIS
aabbcc
Your satellite tracking list
Your tracking list is empty




NASA's NSSDC Master Catalog

Two Line Element Set (TLE):
1 27903U 82064E   20259.60769482 -.00000022  00000-0  00000+0 0  9995
2 27903  68.4410  51.7647 6224005  28.8922 354.4769  1.96118558129684
Source of the keplerian elements: AFSPC